Weather History for Kulusuk, Greenland

Change the Weather History Date:

Thursday, February 27, 2014

  Actual Average Record
Temperature  
Mean Temperature 30 °F -  
Max Temperature 33 °F 22 °F 33 °F (2014)
Min Temperature 26 °F 16 °F 0 °F (2012)
Degree Days  
Heating Degree Days 36    
Moisture  
Dew Point 21 °F    
Average Humidity 64    
Maximum Humidity 80    
Minimum Humidity 42    
Precipitation  
Precipitation 0.00 in - - ()
Sea Level Pressure  
Sea Level Pressure 29.68 in    
Wind  
Wind Speed 33 mph ()    
Max Wind Speed 44 mph    
Max Gust Speed 67 mph    
Visibility 3.9 miles    
Events Rain , Snow    
Averages and records for this station are not official NWS values.
T = Trace of Precipitation, MM = Missing Value Source: Averaged Metar Reports

Daily Weather History Graph

Daily Weather History Graph

Search for Another Location

Airport:

Trip Planner

Search our weather history database for the weather conditions in past years. The results will help you decide how hot, cold, wet, or windy it might be!

Date:

Astronomy

Feb. 27, 2014 Rise Set
Actual Time 6:47 AM WGT 4:36 PM WGT
Civil Twilight 5:56 AM WGT 5:27 PM WGT
Nautical Twilight 4:58 AM WGT 6:25 PM WGT
Astronomical Twilight 3:58 AM WGT 7:25 PM WGT
Moon 5:48 AM WGT (2/27) 2:24 PM WGT (2/27)
Length of Visible Light 11h 31m
Length of Day
9h 48m
Waning Crescent, 4% of the Moon is Illuminated
Feb 27
Waning Crescent
Mar 1
New
Mar 8
First Quarter
Mar 16
Full
Mar 23
Last Quarter

Hourly Weather History & Observations

Time (WGT) Temp. Windchill Dew Point Humidity Pressure Visibility Wind Dir Wind Speed Gust Speed Precip Events Conditions
12:00 AM 27 °F - 13 °F 42% 29.54 in 1 mi ENE 41.4 mph - - Snow Light Snow
12:20 AM 26.6 °F 8.3 °F 15.8 °F 64% 29.53 in 2.8 mi ENE 40.3 mph 57.5 mph N/A Snow Light Snow
12:50 AM 26.6 °F 8.1 °F 17.6 °F 69% 29.53 in 1.9 mi ENE 41.4 mph 59.8 mph N/A Snow Light Snow
1:00 AM 27 °F - 17 °F 52% 29.55 in 1 mi ENE 40.3 mph - - Snow Light Snow
1:20 AM 26.6 °F 8.1 °F 17.6 °F 69% 29.53 in 3.1 mi ENE 41.4 mph 61.0 mph N/A Rain Light Freezing Rain
1:50 AM 26.6 °F 8.1 °F 17.6 °F 69% 29.53 in - East 41.4 mph 55.2 mph N/A Rain Light Freezing Rain
2:00 AM 27 °F - 15 °F 48% 29.56 in 2 mi ENE 40.3 mph - -   Light Freezing Rain
2:20 AM 26.6 °F 7.7 °F 17.6 °F 69% 29.53 in 1.2 mi ENE 43.7 mph 61.0 mph N/A Snow Light Snow
2:50 AM 26.6 °F 7.9 °F 17.6 °F 69% 29.56 in - ENE 42.6 mph 66.7 mph N/A Snow Light Snow
3:00 AM 28 °F - 15 °F 46% 29.57 in 2 mi East 39.1 mph - -   Light Freezing Rain
3:20 AM 28.4 °F 11.8 °F 17.6 °F 64% 29.56 in 3.7 mi East 34.5 mph 56.4 mph N/A Rain Light Freezing Rain
3:50 AM 28.4 °F 11.4 °F 19.4 °F 69% 29.56 in 4.3 mi ENE 36.8 mph 55.2 mph N/A Rain Light Freezing Rain
4:00 AM 28 °F - 17 °F 52% 29.59 in 1 mi ENE 35.7 mph - -   Light Freezing Rain
4:20 AM 28.4 °F 11.4 °F 19.4 °F 69% 29.56 in 5.0 mi ENE 36.8 mph 52.9 mph N/A   Light Freezing Drizzle
4:50 AM 28.4 °F 11.6 °F 19.4 °F 69% 29.59 in 3.7 mi ENE 35.7 mph 61.0 mph N/A Rain Light Freezing Rain
5:00 AM 28 °F - 19 °F 58% 29.61 in 2 mi ENE 32.2 mph - -   Light Ice Pellets
5:20 AM 28.4 °F 12.5 °F 19.4 °F 69% 29.59 in 5.6 mi ENE 31.1 mph 49.5 mph N/A Rain Light Freezing Rain
5:50 AM 28.4 °F 12.5 °F 21.2 °F 74% 29.59 in 1.8 mi ENE 31.1 mph 63.3 mph N/A Snow Light Snow
6:00 AM 28 °F - 21 °F 64% 29.61 in 1 mi ENE 31.1 mph - - Snow Light Snow
6:20 AM 28.4 °F 11.6 °F 23.0 °F 80% 29.59 in 0.7 mi ENE 35.7 mph 51.8 mph N/A Snow Light Snow
6:50 AM 30.2 °F 14.7 °F 23.0 °F 75% 29.62 in - ENE 32.2 mph 54.1 mph N/A Snow Light Snow
7:00 AM 29 °F - 21 °F 63% 29.63 in 1 mi ENE 32.2 mph - - Snow Light Snow
7:20 AM 30.2 °F 14.5 °F 21.2 °F 69% 29.62 in 3.1 mi ENE 33.4 mph 54.1 mph N/A Rain Light Freezing Rain
7:50 AM 30.2 °F 14.3 °F 23.0 °F 75% 29.62 in 1.7 mi ENE 34.5 mph 51.8 mph N/A   Light Ice Pellets
8:00 AM 30 °F - 22 °F 60% 29.63 in 1 mi ENE 35.7 mph - - Snow Light Snow
8:20 AM 30.2 °F 13.3 °F 21.2 °F 69% 29.62 in 3.1 mi ENE 40.3 mph 52.9 mph N/A Rain Light Freezing Rain
8:50 AM 30.2 °F 13.5 °F 21.2 °F 69% 29.62 in 6.2 mi ENE 39.1 mph 61.0 mph N/A Snow Blowing Snow
9:00 AM 31 °F - 20 °F 51% 29.64 in 2 mi ENE 38.0 mph - -   Light Freezing Rain
9:50 AM 32.0 °F 16.5 °F 21.2 °F 64% 29.62 in 6.2 mi ENE 35.7 mph 50.6 mph N/A Snow Blowing Snow
10:00 AM 32 °F - 19 °F 46% 29.65 in 5 mi ENE 35.7 mph - - Rain Light Rain
10:50 AM 30.2 °F 14.7 °F 21.2 °F 69% 29.65 in 6.2 mi ENE 32.2 mph 47.2 mph N/A Snow Blowing Snow
11:00 AM 30 °F - 20 °F 54% 29.67 in 6 mi ENE 32.2 mph - - Rain Light Freezing Rain
11:50 AM 30.2 °F 15.9 °F 19.4 °F 64% 29.65 in 6.2 mi East 26.5 mph 38.0 mph N/A Snow Low Drifting Snow
12:00 PM 31 °F - 18 °F 47% 29.68 in 22 mi East 25.3 mph - -   Light Ice Pellets
12:50 PM 30.2 °F 16.2 °F 19.4 °F 64% 29.68 in 6.2 mi ENE 25.3 mph 36.8 mph N/A Snow Low Drifting Snow
1:00 PM 30 °F - 18 °F 49% 29.70 in 5 mi East 23.0 mph - - Snow Light Snow Showers
1:50 PM 30.2 °F 16.2 °F 19.4 °F 64% 29.68 in 6.2 mi ENE 25.3 mph 39.1 mph N/A Snow Low Drifting Snow
2:00 PM 31 °F - 18 °F 44% 29.71 in 22 mi East 26.5 mph - -   Clear
2:50 PM 30.2 °F 15.9 °F 19.4 °F 64% 29.71 in 6.2 mi ENE 26.5 mph 42.6 mph N/A Snow Low Drifting Snow
3:00 PM 30 °F - 18 °F 49% 29.73 in 22 mi ENE 25.3 mph - -   Mostly Cloudy
3:50 PM 32.0 °F 18.1 °F 23.0 °F 69% 29.74 in 6.2 mi East 27.6 mph 51.8 mph N/A Snow Low Drifting Snow
4:00 PM 33 °F - 20 °F 46% 29.76 in 13 mi ENE 28.8 mph - - Rain Light Rain Showers
4:50 PM 32.0 °F 16.7 °F 23.0 °F 69% 29.77 in 6.2 mi ENE 34.5 mph 58.7 mph N/A Rain Light Rain Showers
5:00 PM 32 °F - 22 °F 56% 29.79 in 5 mi ENE 36.8 mph - - Rain Light Rain Showers
5:20 PM 32.0 °F 17.0 °F 24.8 °F 75% 29.77 in 6.2 mi ENE 33.4 mph 46.0 mph N/A Rain Light Rain Showers
5:50 PM 33.8 °F 19.9 °F 24.8 °F 70% 29.77 in 6.2 mi ENE 31.1 mph 49.5 mph N/A Rain Light Rain Showers
6:00 PM 33 °F - 23 °F 55% 29.80 in 7 mi ENE 35.7 mph - - Rain Light Rain Showers
6:20 PM 33.8 °F 19.4 °F 24.8 °F 70% 29.77 in 6.2 mi ENE 33.4 mph 48.3 mph N/A Rain Light Rain
6:50 PM 32.0 °F 17.9 °F 24.8 °F 75% 29.80 in 6.2 mi ENE 28.8 mph 61.0 mph N/A Rain Light Rain Showers
7:00 PM 33 °F - 23 °F 56% 29.81 in 13 mi ENE 28.8 mph - - Rain Light Rain Showers
7:20 PM 32.0 °F 18.1 °F 24.8 °F 75% 29.80 in 6.2 mi ENE 27.6 mph 46.0 mph N/A Rain Light Rain Showers
7:50 PM 30.2 °F 14.7 °F 24.8 °F 80% 29.80 in 1.7 mi ENE 32.2 mph 52.9 mph N/A Rain Light Freezing Rain
8:00 PM 30 °F - 25 °F 73% 29.83 in 0 mi ENE 33.4 mph - - Snow Light Snow Showers
8:20 PM 32.0 °F 17.4 °F 24.8 °F 75% 29.80 in 1.3 mi ENE 31.1 mph 43.7 mph N/A Snow Light Snow Showers
8:50 PM 30.2 °F 14.9 °F 24.8 °F 80% 29.80 in 1.6 mi ENE 31.1 mph 50.6 mph N/A Snow Light Snow
9:00 PM 31 °F - 24 °F 66% 29.84 in 1 mi ENE 31.1 mph - - Snow Light Snow
9:20 PM 30.2 °F 14.3 °F 24.8 °F 80% 29.83 in 1.6 mi ENE 34.5 mph 47.2 mph N/A Rain , Snow Light Freezing Rain
9:50 PM 30.2 °F 14.1 °F 24.8 °F 80% 29.83 in 1.1 mi ENE 35.7 mph 51.8 mph N/A Snow Light Snow
10:00 PM 31 °F - 23 °F 63% 29.84 in 1 mi East 33.4 mph - - Snow Light Snow
10:20 PM 32.0 °F 17.2 °F 23.0 °F 69% 29.83 in 6.2 mi ENE 32.2 mph 46.0 mph N/A Snow Light Snow
10:50 PM 32.0 °F 17.6 °F 23.0 °F 69% 29.83 in 6.2 mi ENE 29.9 mph 43.7 mph N/A Rain Light Rain
11:00 PM 31 °F - 22 °F 60% 29.85 in 2 mi East 27.6 mph - - Rain Light Freezing Rain